Lamezia Terme, Italy

5:25 AM CEST on April 25, 2018 (GMT +0200)
Terme

Weather History for LICA - May, 2013

Change the Weather History Date:

Wednesday, May 1, 2013

  Actual Average Record
Temperature  
Mean Temperature 77 °F -  
Max Temperature 86 °F 70 °F 86 °F (2013)
Min Temperature 64 °F 56 °F 47 °F (2017)
Cooling Degree Days 12    
Growing Degree Days 27 (Base 50)    
Moisture  
Dew Point 43 °F    
Average Humidity 33    
Maximum Humidity 52    
Minimum Humidity 20    
Precipitation  
Precipitation 0.00 in - - ()
Sea Level Pressure  
Sea Level Pressure 30.03 in    
Wind  
Wind Speed 13 mph ()    
Max Wind Speed 22 mph    
Max Gust Speed -    
Averages and records for this station are not official NWS values.
T = Trace of Precipitation, MM = Missing Value Source: Averaged Metar Reports

Daily Weather History Graph

Daily Weather History Graph

Search for Another Location

Airport or City:

Astronomy

May. 01, 2013 Rise Set
Actual Time 5:57 AM CEST 7:47 PM CEST
Civil Twilight 5:28 AM CEST 8:16 PM CEST
Nautical Twilight 4:53 AM CEST 8:51 PM CEST
Astronomical Twilight 4:16 AM CEST 9:28 PM CEST
Moon 12:43 AM CEST (5/1) 11:15 AM CEST (5/1)
Length of Visible Light 14h 47m
Length of Day
13h 50m
Waning Gibbous, 62% of the Moon is Illuminated
May 1
Waning Gibbous
May 2
Last Quarter
May 10
New
May 18
First Quarter
May 25
Full

Hourly Weather History & Observations

Time (CEST) Temp. Dew Point Humidity Pressure Visibility Wind Dir Wind Speed Gust Speed Precip Events Conditions
12:50 AM 69.8 °F 37.4 °F 31% 30.06 in - East 15.0 mph - N/A   Clear
1:50 AM 69.8 °F 37.4 °F 31% 30.04 in - East 18.4 mph - N/A   Clear
2:50 AM 69.8 °F 35.6 °F 28% 30.04 in - East 16.1 mph - N/A   Clear
3:50 AM 69.8 °F 35.6 °F 28% 30.04 in - East 13.8 mph - N/A   Clear
4:50 AM 68.0 °F 37.4 °F 33% 30.04 in - East 10.4 mph - N/A   Clear
5:50 AM 68.0 °F 35.6 °F 30% 30.04 in - East 15.0 mph - N/A   Clear
6:50 AM 68.0 °F 37.4 °F 33% 30.04 in - East 13.8 mph - N/A   Clear
7:50 AM 71.6 °F 39.2 °F 31% 30.04 in - East 17.3 mph - N/A   Clear
8:50 AM 75.2 °F 42.8 °F 31% 30.04 in - East 17.3 mph - N/A   Clear
9:50 AM 80.6 °F 35.6 °F 20% 30.06 in - East 21.9 mph - N/A   Clear
10:50 AM 80.6 °F 42.8 °F 26% 30.06 in - East 17.3 mph - N/A   Clear
11:50 AM 84.2 °F 42.8 °F 23% 30.06 in - East 16.1 mph - N/A   Clear
12:50 PM 84.2 °F 44.6 °F 25% 30.04 in - ESE 17.3 mph - N/A   Clear
1:50 PM 86.0 °F 48.2 °F 27% 30.04 in - East 16.1 mph - N/A   Clear
2:50 PM 84.2 °F 48.2 °F 29% 30.01 in - East 18.4 mph - N/A   Clear
3:50 PM 77.0 °F 53.6 °F 44% 30.04 in - West 16.1 mph - N/A   Clear
4:50 PM 78.8 °F 46.4 °F 32% 30.04 in - WSW 6.9 mph - N/A   Clear
5:50 PM 80.6 °F 46.4 °F 30% 30.01 in - NE 5.8 mph - N/A   Clear
6:50 PM 80.6 °F 48.2 °F 32% 30.01 in - ENE 5.8 mph - N/A   Clear
7:50 PM 73.4 °F 51.8 °F 47% 30.01 in - East 9.2 mph - N/A   Clear
8:50 PM 69.8 °F 50.0 °F 49% 30.01 in - ENE 4.6 mph - N/A   Clear
9:50 PM 68.0 °F 46.4 °F 46% 30.01 in - ENE 6.9 mph - N/A   Clear
10:50 PM 68.0 °F 46.4 °F 46% 30.01 in - ENE 10.4 mph - N/A   Clear
11:50 PM 64.4 °F 46.4 °F 52% 29.98 in - ESE 5.8 mph - N/A   Clear